Topeka, KS

12:41 PM CDT on March 24, 2017 (GMT -0500)
Billard Municipal

Weather History for KTOP - April, 2014

Change the Weather History Date:

Wednesday, April 30, 2014

  Actual Average Record
Temperature  
Mean Temperature 50 °F 60 °F  
Max Temperature 58 °F 71 °F 91 °F (1936)
Min Temperature 41 °F 49 °F 29 °F (1903)
Degree Days  
Heating Degree Days 15 6  
Month to date heating degree days 312 322  
Since 1 July heating degree days 5344 4917  
Cooling Degree Days 0 1  
Month to date cooling degree days 23 25  
Year to date cooling degree days 23 28  
Moisture  
Dew Point 34 °F    
Average Humidity 59    
Maximum Humidity 82    
Minimum Humidity 36    
Precipitation  
Precipitation T in 0.15 in 2.32 in (1949)
Month to date precipitation 3.45 3.53  
Year to date precipitation 5.84 8.20  
Snow  
Snow 0.00 in 0.00 in 1.40 in (1903)
Month to date snowfall 0.1 0.3  
Year to date snowfall 23.1 11.3  
Since 1 July snowfall 27.4 17.8  
Snow Depth 0.00 in    
Sea Level Pressure  
Sea Level Pressure 29.97 in    
Wind  
Wind Speed 13 mph (WNW)    
Max Wind Speed 25 mph    
Max Gust Speed 33 mph    
Visibility 10 miles    
Events      
T = Trace of Precipitation, MM = Missing Value Source: NWS Daily Summary

Daily Weather History Graph

Daily Weather History Graph

Search for Another Location

Airport or City:

Trip Planner

Search our weather history database for the weather conditions in past years. The results will help you decide how hot, cold, wet, or windy it might be!

Date:

Astronomy

Apr. 30, 2014 Rise Set
Actual Time 6:25 AM CDT 8:14 PM CDT
Civil Twilight 5:56 AM CDT 8:43 PM CDT
Nautical Twilight 5:21 AM CDT 9:18 PM CDT
Astronomical Twilight 4:44 AM CDT 9:55 PM CDT
Moon 7:27 AM CDT (4/30) 9:53 PM CDT (4/30)
Length of Visible Light 14h 46m
Length of Day
13h 48m
New Moon, 2% of the Moon is Illuminated
Apr 30
New Moon
May 6
First Quarter
May 14
Full
May 21
Last Quarter
May 28
New

Hourly Weather History & Observations

Time (CDT) Temp. Windchill Dew Point Humidity Pressure Visibility Wind Dir Wind Speed Gust Speed Precip Events Conditions
12:53 AM 45.0 °F 39.7 °F 36.0 °F 71% 29.91 in 10.0 mi NW 10.4 mph - N/A   Overcast
1:53 AM 44.1 °F 40.1 °F 37.0 °F 76% 29.92 in 10.0 mi WNW 6.9 mph - N/A   Mostly Cloudy
2:53 AM 42.1 °F 36.6 °F 35.1 °F 76% 29.94 in 10.0 mi WNW 9.2 mph - N/A   Clear
3:53 AM 42.1 °F 37.7 °F 35.1 °F 76% 29.95 in 10.0 mi WNW 6.9 mph - N/A   Overcast
4:53 AM 42.1 °F 37.1 °F 35.1 °F 76% 29.96 in 10.0 mi West 8.1 mph - N/A   Overcast
5:53 AM 42.1 °F 37.7 °F 36.0 °F 79% 29.96 in 10.0 mi West 6.9 mph - N/A   Scattered Clouds
6:53 AM 43.0 °F 37.7 °F 37.9 °F 82% 29.96 in 10.0 mi West 9.2 mph - N/A   Overcast
7:53 AM 46.0 °F 41.0 °F 39.0 °F 76% 29.96 in 10.0 mi West 10.4 mph - N/A   Overcast
8:53 AM 48.0 °F - 37.9 °F 68% 29.97 in 10.0 mi West 15.0 mph 20.7 mph N/A   Overcast
9:33 AM 48.9 °F - 37.9 °F 66% 29.97 in 10.0 mi WNW 12.7 mph 25.3 mph N/A   Overcast
9:53 AM 48.2 °F - 37.4 °F 66% 29.97 in 10.0 mi NW 16.1 mph 25.3 mph N/A   Overcast
10:53 AM 53.1 °F - 37.0 °F 55% 29.99 in 10.0 mi NW 17.3 mph 26.5 mph N/A   Mostly Cloudy
11:53 AM 53.1 °F - 34.0 °F 48% 29.99 in 10.0 mi NW 16.1 mph 25.3 mph N/A   Overcast
12:53 PM 55.0 °F - 33.1 °F 43% 29.99 in 10.0 mi WNW 16.1 mph 25.3 mph N/A   Overcast
1:53 PM 55.0 °F - 32.0 °F 42% 29.98 in 10.0 mi WNW 21.9 mph 31.1 mph N/A   Mostly Cloudy
2:53 PM 57.0 °F - 32.0 °F 39% 29.98 in 10.0 mi WNW 15.0 mph 28.8 mph N/A   Overcast
3:53 PM 57.9 °F - 30.0 °F 35% 29.97 in 10.0 mi WNW 16.1 mph 27.6 mph N/A   Mostly Cloudy
4:53 PM 55.0 °F - 30.9 °F 40% 29.97 in 10.0 mi NW 17.3 mph 26.5 mph N/A   Overcast
5:53 PM 55.9 °F - 32.0 °F 40% 29.97 in 10.0 mi NNW 17.3 mph 26.5 mph N/A   Overcast
6:53 PM 54.0 °F - 30.0 °F 40% 29.98 in - NW 17.3 mph - N/A   Unknown
7:53 PM 52.0 °F - 30.9 °F 45% 29.99 in 10.0 mi NW 15.0 mph - N/A   Overcast
8:53 PM 50.0 °F - 33.1 °F 52% 29.99 in 10.0 mi NW 10.4 mph - N/A   Overcast
9:53 PM 48.9 °F - 33.1 °F 54% 30.02 in 10.0 mi NW 11.5 mph - N/A   Overcast
10:53 PM 48.0 °F - 32.0 °F 54% 30.03 in 10.0 mi WNW 10.4 mph - N/A   Overcast
11:53 PM 48.0 °F - 33.1 °F 56% 30.02 in 10.0 mi West 6.9 mph - N/A   Overcast